Regional Weather Roundup
Issued by NWS Green Bay, WI

Home | Current Version | Previous Version | Text Only | Print | Product List | Glossary On
Versions: 1 2 3 4 5 6 7 8 9 10 11 12 13 14 15 16 17 18 19 20 21 22 23 24 25 26 27 28 29 30 31 32 33 34 35 36 37 38 39 40 41 42 43 44 45 46 47 48 49 50
000
ASUS43 KGRB 041811
RWRGRB

NORTH-CENTRAL AND NORTHEAST WISCONSIN REGIONAL WEATHER ROUNDUP
NATIONAL WEATHER SERVICE GREEN BAY WI
100 PM CDT SAT JUL 04 2015

WIZ005-009-010>012-018-019-041900-
NORTH CENTRAL WISCONSIN

CITY           SKY/WX    TMP DP  RH WIND       PRES   REMARKS
IRONWOOD       SUNNY     75  52  43 N3        29.94S
MANITOWISH WTR MOSUNNY   74  54  49 N3        29.99R
ARBOR VITAE    SUNNY     77  58  51 CALM      29.98F
EAGLE RIVER    MOSUNNY   77  54  44 CALM      29.98S
LAND O LAKES   MOSUNNY   77  52  41 CALM      30.00S
RHINELANDER    MOSUNNY   80  51  36 CALM      29.99S
PHILLIPS       MOSUNNY   78  56  46 E5        29.97S
ANTIGO         MOSUNNY   77  60  56 S3        29.99S
TOMAHAWK       SUNNY     77  55  45 CALM      29.98F
MERRILL        SUNNY     78  58  50 SW3       29.98S
$$

WIZ013-073-041900-
NORTHEAST WISCONSIN

CITY           SKY/WX    TMP DP  RH WIND       PRES   REMARKS
IRON MOUNTAIN  MOSUNNY   79  58  48 E6        29.97S
MARINETTE      SUNNY     73  61  64 SE8       29.98R
OCONTO         SUNNY     76  64  65 E6        29.98R
$$

WIZ017-030-035>037-045-041900-
CENTRAL WISCONSIN

CITY           SKY/WX    TMP DP  RH WIND       PRES   REMARKS
MEDFORD        MOSUNNY   77  60  55 CALM      29.98F
WAUSAU         MOSUNNY   78  59  51 S5        29.96S
MOSINEE        MOSUNNY   77  63  61 VRB5      29.99S
MARSHFIELD     MOSUNNY   80  61  52 VRB3      29.98S
WISC RAPIDS    SUNNY     80  62  54 W7        29.99S
STEVENS POINT  MOSUNNY   76  60  58 CALM      29.98S
WAUPACA        PTSUNNY   82  63  53 S7        29.98S
SHAWANO        SUNNY     79  63  56 NE6       29.98R
CLINTONVILLE   PTSUNNY   79  59  50 W3        29.97S
$$

WIZ038-039-048-051-041900-
FOX VALLEY

CITY           SKY/WX    TMP DP  RH WIND       PRES   REMARKS
NWS GREEN BAY  MOSUNNY   79  63  57 E3        29.98R
APPLETON       PTSUNNY   75  59  57 SW5       29.99R
OSHKOSH        MOSUNNY   78  61  55 SW7       29.98S
FOND DU LAC    PTSUNNY   80  62  54 CALM      29.98F
$$

WIZ022-050-052-041900-
EAST CENTRAL WISCONSIN

CITY           SKY/WX    TMP DP  RH WIND       PRES   REMARKS
STURGEON BAY   MOSUNNY   72  61  68 SE7       30.01S
MANITOWOC      SUNNY     72  63  73 MISG      29.99R
SHEBOYGAN      PTSUNNY   79  61  53 NW7       29.98S
$$

LMZ563-521-522-541>543-041900-
LAKESHORE

STATION/POSITION TIME  TEMP    WIND        PRES    VSBY  WAVE
                       AIR SEA DIR/SP/G                  HT/PER
                 (UTC) (F)     (DEG/KT/KT) (MB)    (MI)  (FT/S)
SHEBOYGAN LKSHOR 1800   63      90/  6/  7 1015.6R
KEWAUNEE LKSHORE 1700   63      40/  7/ 10 1014.9R
TWO RIVERS CG    1750   65                 1015.8   3 1/2  1
NORTHPORT PIER   1700   62     140/  6/  7 1015.2S
N MID LAKE BUOY  1750   57 45  180/  2/  2 1015.6R         1
S GREEN BAY BUOY 1730   68 70   30/ 10/ 12 1016.5
SISTER BAY LKSHO 1714   71     360/  6/  7   N/A
STURGEON BAY CG  1755   63      70/  4     1015.8      6   1
CHAMBERS ISLAND  1700   68     360/  5/  6 1015.2S
MENOMINEE LKSHOR 1700   65      30/  6/  7 1015.9S
$$


USA.gov is the U.S. government's official web portal to all federal, state and local government web resources and services.